N9DMT-13 Weather Reports


time (UTC)temp
C
wind
direction
speed
KPH
gust
KPH
rain 1hr
cm
rain 24hr
cm
rain mn
cm
humidity
%
barometer
mb
20260504000605 20 23 0.0 0.0 0.00 0.00 0.00 34 972.5
20260504000104 20 6 0.0 0.0 0.00 0.00 0.00 35 972.4
20260503235603 21 319 0.0 0.0 0.00 0.00 0.00 33 972.2
20260503235103 21 0 0.0 0.0 0.00 0.00 0.00 34 972.2
20260503234602 21 7 0.0 0.0 0.00 0.00 0.00 34 972.3
20260503234101 21 359 0.0 0.0 0.00 0.00 0.00 34 972.2
20260503233601 21 6 0.0 0.0 0.00 0.00 0.00 32 972.3
20260503233100 21 343 0.0 0.0 0.00 0.00 0.00 32 972.1
20260503232559 21 358 0.0 0.0 0.00 0.00 0.00 31 972.0
20260503232059 22 292 0.0 1.6 0.00 0.00 0.00 32 971.9
20260503231558 22 290 0.0 1.6 0.00 0.00 0.00 32 972.0
20260503231057 23 329 0.0 1.6 0.00 0.00 0.00 31 972.1
20260503230556 23 303 0.0 0.0 0.00 0.00 0.00 31 972.0
20260503230055 23 302 0.0 1.6 0.00 0.00 0.00 30 971.8
20260503225555 23 327 0.0 1.6 0.00 0.00 0.00 30 971.8
20260503225053 22 11 0.0 1.6 0.00 0.00 0.00 31 971.8
20260503224553 23 351 4.8 6.4 0.00 0.00 0.00 31 971.8
20260503224052 23 356 0.0 0.0 0.00 0.00 0.00 32 971.9
20260503223551 23 258 3.2 4.8 0.00 0.00 0.00 31 971.9
20260503223050 23 261 0.0 0.0 0.00 0.00 0.00 31 971.9
20260503222549 23 318 0.0 0.0 0.00 0.00 0.00 31 971.9
20260503222048 23 352 0.0 0.0 0.00 0.00 0.00 32 971.8
20260503221546 23 309 0.0 1.6 0.00 0.00 0.00 31 972.0
20260503221045 23 255 3.2 4.8 0.00 0.00 0.00 32 971.9
20260503220544 23 257 3.2 3.2 0.00 0.00 0.00 31 971.9
20260503220043 24 272 4.8 6.4 0.00 0.00 0.00 31 972.0
20260503215542 23 308 0.0 0.0 0.00 0.00 0.00 33 971.7
20260503215041 23 342 0.0 0.0 0.00 0.00 0.00 34 971.9
20260503214541 23 268 3.2 4.8 0.00 0.00 0.00 33 972.1
20260503214040 23 286 0.0 1.6 0.00 0.00 0.00 33 972.0
20260503213539 23 277 0.0 1.6 0.00 0.00 0.00 33 971.9
20260503213038 22 340 0.0 0.0 0.00 0.00 0.00 35 972.0
20260503212538 23 224 4.8 6.4 0.00 0.00 0.00 34 972.0
20260503212037 23 289 1.6 3.2 0.00 0.00 0.00 34 972.0
20260503211536 23 268 3.2 3.2 0.00 0.00 0.00 33 972.1
20260503211035 23 221 3.2 3.2 0.00 0.00 0.00 34 972.2
20260503210535 23 272 3.2 4.8 0.00 0.00 0.00 34 972.4
20260503210034 23 0 0.0 1.6 0.00 0.00 0.00 36 972.2
20260503205533 23 255 3.2 3.2 0.00 0.00 0.00 35 972.3
20260503205032 23 241 3.2 3.2 0.00 0.00 0.00 36 972.3
20260503204532 22 303 1.6 3.2 0.00 0.00 0.00 36 972.3
20260503204031 22 290 6.4 6.4 0.00 0.00 0.00 36 972.5
20260503203530 23 347 1.6 3.2 0.00 0.00 0.00 36 972.5
20260503203029 23 301 0.0 0.0 0.00 0.00 0.00 36 972.7
20260503202529 22 329 0.0 0.0 0.00 0.00 0.00 39 972.7
20260503193520 22 338 0.0 0.0 0.00 0.00 0.00 38 973.1
20260503193020 22 329 0.0 0.0 0.00 0.00 0.00 40 973.2
20260503192519 22 212 0.0 0.0 0.00 0.00 0.00 40 973.3
20260503192018 22 349 0.0 0.0 0.00 0.00 0.00 39 973.3
20260503191517 22 253 1.6 3.2 0.00 0.00 0.00 37 973.4
20260503191017 22 342 0.0 0.0 0.00 0.00 0.00 39 973.4
20260503190516 21 239 1.6 1.6 0.00 0.00 0.00 38 973.4
20260503190016 21 332 0.0 0.0 0.00 0.00 0.00 42 973.5
20260503185515 21 252 3.2 4.8 0.00 0.00 0.00 39 973.6
20260503185014 20 284 1.6 3.2 0.00 0.00 0.00 40 973.8
20260503184513 21 254 0.0 1.6 0.00 0.00 0.00 39 973.8
20260503184013 21 245 4.8 6.4 0.00 0.00 0.00 41 973.6
20260503183512 21 10 0.0 0.0 0.00 0.00 0.00 42 973.7
20260503183011 20 280 0.0 1.6 0.00 0.00 0.00 41 973.7
20260503182510 20 197 8.0 9.7 0.00 0.00 0.00 38 973.9
20260503182010 21 291 3.2 4.8 0.00 0.00 0.00 38 973.8
20260503181509 20 265 0.0 0.0 0.00 0.00 0.00 43 973.9
20260503181008 20 331 1.6 6.4 0.00 0.00 0.00 42 973.9
20260503180508 20 176 0.0 1.6 0.00 0.00 0.00 38 974.0
20260503180007 20 359 0.0 1.6 0.00 0.00 0.00 43 974.1
20260503175506 19 162 1.6 1.6 0.00 0.00 0.00 46 974.3
20260503175006 19 267 4.8 6.4 0.00 0.00 0.00 41 974.1
20260503174505 20 179 4.8 6.4 0.00 0.00 0.00 39 974.1
20260503174004 19 252 1.6 1.6 0.00 0.00 0.00 43 974.1
20260503173503 18 255 1.6 4.8 0.00 0.00 0.00 44 974.3
20260503173003 18 184 0.0 0.0 0.00 0.00 0.00 42 974.4
20260503172502 18 268 0.0 0.0 0.00 0.00 0.00 43 974.6
20260503172001 18 274 0.0 0.0 0.00 0.00 0.00 43 974.5
20260503171500 18 331 0.0 0.0 0.00 0.00 0.00 45 974.5
20260503170959 18 270 0.0 0.0 0.00 0.00 0.00 42 974.7
20260503170459 18 329 0.0 0.0 0.00 0.00 0.00 41 974.7
20260503150941 16 322 3.2 4.8 0.00 0.00 0.00 45 975.7
20260503150440 16 190 6.4 6.4 0.00 0.00 0.00 45 975.7
20260503130923 12 270 1.6 3.2 0.00 0.00 0.00 61 976.8
20260503130422 11 236 4.8 6.4 0.00 0.00 0.00 61 976.9
20260503110405 11 347 0.0 0.0 0.00 0.00 0.00 61 977.9
20260503090346 5 349 0.0 0.0 0.00 0.00 0.00 82 978.9
20260503081338 4 12 0.0 0.0 0.00 0.00 0.00 84 979.2
20260503080837 4 23 0.0 0.0 0.00 0.00 0.00 87 979.1
20260503080337 4 31 0.0 0.0 0.00 0.00 0.00 87 979.2
20260503072832 3 6 0.0 0.0 0.00 0.00 0.00 89 979.5
20260503072331 3 6 0.0 0.0 0.00 0.00 0.00 89 979.5
20260503071831 3 7 0.0 0.0 0.00 0.00 0.00 89 979.6
20260503071330 3 7 0.0 0.0 0.00 0.00 0.00 90 979.6
20260503070829 3 7 0.0 0.0 0.00 0.00 0.00 90 979.6
20260503070329 3 7 0.0 0.0 0.00 0.00 0.00 91 979.4
20260503060321 2 8 0.0 0.0 0.00 0.00 0.00 91 980.0
20260503054818 2 8 0.0 0.0 0.00 0.00 0.00 91 980.2
20260503054317 2 8 0.0 0.0 0.00 0.00 0.00 90 980.2
20260503053817 2 8 0.0 0.0 0.00 0.00 0.00 90 980.3
20260503053316 2 8 0.0 0.0 0.00 0.00 0.00 89 980.3
20260503052815 2 8 0.0 0.0 0.00 0.00 0.00 89 980.2
20260503052315 2 8 0.0 0.0 0.00 0.00 0.00 88 980.2
20260503051814 3 8 0.0 0.0 0.00 0.00 0.00 88 980.3
20260503051313 3 8 0.0 0.0 0.00 0.00 0.00 89 980.3
20260503050812 3 8 0.0 0.0 0.00 0.00 0.00 89 980.5
20260503050312 3 8 0.0 0.0 0.00 0.00 0.00 88 980.4
20260503045811 3 8 0.0 0.0 0.00 0.00 0.00 88 980.4
20260503045310 3 8 0.0 0.0 0.00 0.00 0.00 87 980.5
20260503044809 3 8 0.0 0.0 0.00 0.00 0.00 87 980.5
20260503044309 3 8 0.0 0.0 0.00 0.00 0.00 87 980.4
20260503043808 3 8 0.0 0.0 0.00 0.00 0.00 87 980.5
20260503043307 3 8 0.0 0.0 0.00 0.00 0.00 86 980.7
20260503042806 3 8 0.0 0.0 0.00 0.00 0.00 86 980.7
20260503042306 3 9 0.0 0.0 0.00 0.00 0.00 86 980.7
20260503041805 3 9 0.0 0.0 0.00 0.00 0.00 86 980.6
20260503041304 3 9 0.0 0.0 0.00 0.00 0.00 86 981.0
20260503040804 3 9 0.0 0.0 0.00 0.00 0.00 86 980.9
20260503040303 3 9 0.0 0.0 0.00 0.00 0.00 86 980.9
20260503035802 3 9 0.0 0.0 0.00 0.00 0.00 86 981.0
20260503035304 3 9 0.0 0.0 0.00 0.00 0.00 86 981.0
20260503034801 4 9 0.0 0.0 0.00 0.00 0.00 85 981.1
20260503034300 4 9 0.0 0.0 0.00 0.00 0.00 85 981.2
20260503033759 4 9 0.0 0.0 0.00 0.00 0.00 84 981.2
20260503033259 4 9 0.0 0.0 0.00 0.00 0.00 84 981.1
20260503032758 4 9 0.0 0.0 0.00 0.00 0.00 84 981.2
20260503032257 5 9 0.0 0.0 0.00 0.00 0.00 83 981.3
20260503031757 5 9 0.0 0.0 0.00 0.00 0.00 83 981.2
20260503031256 5 9 0.0 0.0 0.00 0.00 0.00 81 981.2
20260503030755 5 9 0.0 0.0 0.00 0.00 0.00 81 981.4
20260503030254 5 9 0.0 0.0 0.00 0.00 0.00 81 981.3
20260503025753 5 9 0.0 0.0 0.00 0.00 0.00 81 981.3
20260503025252 5 9 0.0 0.0 0.00 0.00 0.00 81 981.4
20260503024752 6 9 0.0 0.0 0.00 0.00 0.00 79 981.3
20260503024251 6 8 0.0 0.0 0.00 0.00 0.00 78 981.2
20260503023750 6 8 0.0 0.0 0.00 0.00 0.00 78 981.5
20260503023249 6 9 0.0 0.0 0.00 0.00 0.00 78 981.4
20260503022748 6 9 0.0 0.0 0.00 0.00 0.00 78 981.4
20260503022247 6 9 0.0 0.0 0.00 0.00 0.00 76 981.5
20260503021746 6 9 0.0 0.0 0.00 0.00 0.00 76 981.4
20260503021246 6 9 0.0 0.0 0.00 0.00 0.00 76 981.6
20260503020745 7 9 0.0 0.0 0.00 0.00 0.00 74 981.5
20260503020244 7 9 0.0 0.0 0.00 0.00 0.00 73 981.3
20260503015743 7 8 0.0 0.0 0.00 0.00 0.00 72 981.3
20260503015243 7 9 0.0 0.0 0.00 0.00 0.00 73 981.3
20260503014742 7 9 0.0 0.0 0.00 0.00 0.00 70 981.4
20260503014241 8 9 0.0 0.0 0.00 0.00 0.00 69 981.3
20260503013740 8 9 0.0 0.0 0.00 0.00 0.00 65 981.3
20260503013240 8 9 0.0 0.0 0.00 0.00 0.00 64 981.3
20260503012739 9 9 0.0 0.0 0.00 0.00 0.00 65 981.3
20260503012238 9 12 0.0 0.0 0.00 0.00 0.00 61 981.2
20260503011738 10 12 0.0 0.0 0.00 0.00 0.00 58 981.2
20260503011237 10 12 0.0 0.0 0.00 0.00 0.00 55 981.2
20260503010736 10 12 0.0 0.0 0.00 0.00 0.00 56 981.3
20260503010235 11 14 0.0 0.0 0.00 0.00 0.00 52 981.1
20260503005735 11 17 0.0 0.0 0.00 0.00 0.00 51 981.4
20260503005234 12 2 0.0 0.0 0.00 0.00 0.00 46 981.2
20260503004733 12 11 0.0 0.0 0.00 0.00 0.00 47 981.3
20260503004232 13 9 0.0 0.0 0.00 0.00 0.00 40 981.2
20260503003731 13 8 0.0 0.0 0.00 0.00 0.00 39 981.5
20260503003230 13 356 0.0 0.0 0.00 0.00 0.00 40 981.3
20260503002729 13 24 0.0 0.0 0.00 0.00 0.00 36 981.4
20260503002228 13 348 0.0 0.0 0.00 0.00 0.00 36 981.4
20260503001726 14 342 0.0 0.0 0.00 0.00 0.00 37 981.4
20260503001226 14 9 0.0 0.0 0.00 0.00 0.00 35 981.7